sat.trackr.live / text

‹ back to catalog

STARLINK-35233

NORAD 65678 · 2025-212C

PAYLOAD ACTIVE UNKNOWN

§ Identity

Operator
Country
US
Launch date
2025-09-21
Launch site
AFETR
Launch vehicle
Mass (kg)
RCS (m²)

Purposes: comms

External: N2YO · Heavens-Above · Gunter

§ Orbital elements

Epoch: 2026-09-20T04:44:09.174624Z

Period
94.01 min
Inclination
53.1580°
Eccentricity
0.0000254
Mean motion
15.31747718 rev/d
Perigee alt
470.4 km
Apogee alt
470.8 km
Semi-major
6,848.7 km
B*
9.5606e-4
RAAN
161.4961°
Arg perigee
80.0976°
Mean anomaly
280.0054°
Rev number
5,704

§ Raw data

STARLINK-352331 65678U 25212C   26263.19732841  .00029464  00000+0  95606-3 0  99912 65678  53.1580 161.4961 0000254  80.0976 280.0054 15.31747718 57044

JSON: /api/v1/satellites/65678 · /tle

For live sub-satellite position, see the globe view (requires WebGL).

§ Visibility from observer

Set your observer location to see the next 7 days of passes ≥ 10°. The values pass through the URL so the page stays shareable.

No JS? Fill the form by hand. The geolocation button needs JavaScript.